Date String (YYYY-MM-DD hh:mm:ss) UTC,Instrument flags,absolute air pressure of the measurement (hPa),sample flow rate (lpm),inlet stack bypass flow (lpm),air temperature of the measurement (°C),ambient temperature measured by the external sensor (°C),aerosol sample conditioner tube jacket temperature (°C),OPC LED temperature (°C),internal box temperature (°C),relative humidity of the measurement (%),span deviation,mass concentration of particles derived from Lorenz-Mie calculation of OPC scattering (μg/m³),mass concentration of particles derived from Lorenz-Mie calculation of OPC scattering (μg/m³),mass concentration of particles derived from Lorenz-Mie calculation of OPC scattering (μg/m³)
DateTimeUTC,F1_M11,P_M11,Q1_M11,Q2_M11,T1_M11,T2_M11,T3_M11,T4_M11,T5_M11,U1_M11,ZSPAN_M11,X0_M11,X2_M11,X1_M11
2023-05-30 18:10:00,SystemResetWarning,0828.6,4.99,000.00,029.0,026.6,000.0,037.3,030.6,30.3,0000.0,0012.71,0005.34,0004.41
2023-05-30 18:11:00,SystemResetWarning,0828.6,5.00,000.00,029.0,026.9,000.0,037.3,030.6,29.5,0000.0,0011.35,0005.33,0004.40
2023-05-30 18:12:00,SystemResetWarning,0828.6,5.00,000.00,029.0,027.1,000.0,037.3,030.7,29.9,0000.0,0011.27,0005.34,0004.42
2023-05-30 18:13:00,SystemResetWarning,0828.6,4.99,000.00,029.0,027.3,000.0,037.3,030.7,29.8,0000.0,0011.65,0005.38,0004.43
2023-05-30 18:14:00,SystemResetWarning,0828.6,4.99,000.00,029.0,027.4,000.0,037.3,030.8,29.5,0000.0,0012.64,0005.41,0004.44
2023-05-30 18:15:00,SystemResetWarning,0828.6,5.00,000.00,029.1,027.6,000.0,037.3,030.8,30.0,0000.0,0012.81,0005.42,0004.44
2023-05-30 18:16:00,SystemResetWarning,0828.6,5.00,000.00,029.1,027.7,000.0,037.4,030.9,29.2,0000.0,0012.94,0005.49,0004.45
2023-05-30 18:17:00,SystemResetWarning,0828.6,5.01,000.00,029.1,027.8,000.0,037.4,030.9,29.6,0000.0,0012.94,0005.53,0004.48
2023-05-30 18:18:00,SystemResetWarning,0828.6,5.01,000.00,029.1,027.9,000.0,037.4,031.0,29.1,0000.0,0013.91,0005.53,0004.48
2023-05-30 18:19:00,SystemResetWarning,0828.6,5.01,000.00,029.2,028.0,000.0,037.4,031.0,28.8,0000.0,0014.12,0005.54,0004.49
2023-05-30 18:20:00,SystemResetWarning,0828.6,4.99,000.00,029.2,027.0,000.0,037.4,030.9,28.2,0000.0,0013.72,0005.58,0004.50
2023-05-30 18:21:00,SystemResetWarning,0828.5,5.00,000.00,029.1,025.4,000.0,037.3,030.6,28.8,0000.0,0013.48,0005.66,0004.53
2023-05-30 18:22:00,SystemResetWarning,0828.5,5.02,000.00,029.1,025.0,000.0,037.2,030.5,28.4,0000.0,0013.78,0005.75,0004.56
2023-05-30 18:23:00,SystemResetWarning,0828.4,5.00,000.00,029.0,025.2,000.0,037.2,030.4,28.5,0000.0,0013.79,0005.75,0004.56
2023-05-30 18:24:00,SystemResetWarning,0828.4,5.00,000.00,028.9,025.5,000.0,037.2,030.4,29.0,0000.0,0014.89,0005.78,0004.57
2023-05-30 18:25:00,SystemResetWarning,0828.4,5.00,000.00,028.9,025.9,000.0,037.3,030.5,29.1,0000.0,0014.39,0005.83,0004.59
2023-05-30 18:26:00,SystemResetWarning,0828.4,5.00,000.00,028.9,026.2,000.0,037.3,030.5,29.6,0000.0,0014.51,0005.87,0004.60
2023-05-30 18:27:00,SystemResetWarning,0828.4,5.00,000.00,028.9,026.6,000.0,037.3,030.6,29.3,0000.0,0014.43,0005.84,0004.61
2023-05-30 18:28:00,SystemResetWarning,0828.4,5.00,000.00,028.9,026.8,000.0,037.3,030.6,29.0,0000.0,0014.31,0005.78,0004.60
2023-05-30 18:29:00,SystemResetWarning,0828.4,5.00,000.00,029.0,027.1,000.0,037.3,030.7,29.6,0000.0,0013.17,0005.81,0004.61
2023-05-30 18:31:00,SystemResetWarning,0828.4,5.00,000.00,029.0,027.5,000.0,037.3,030.8,31.0,0000.0,0013.07,0005.81,0004.61
2023-05-30 18:32:00,SystemResetWarning,0828.4,5.00,000.00,029.0,027.6,000.0,037.3,030.8,30.3,0000.0,0013.72,0005.78,0004.60
2023-05-30 18:33:00,SystemResetWarning,0828.4,5.00,000.00,029.1,027.7,000.0,037.3,030.8,29.0,0000.0,0013.68,0005.73,0004.58
2023-05-30 18:34:00,SystemResetWarning,0828.4,5.01,000.00,029.1,027.8,000.0,037.4,030.9,29.4,0000.0,0013.76,0005.74,0004.58
2023-05-30 18:35:00,SystemResetWarning,0828.4,5.00,000.00,029.1,027.9,000.0,037.4,030.9,29.6,0000.0,0012.41,0005.69,0004.57
2023-05-30 18:36:00,SystemResetWarning,0828.4,4.98,000.00,029.2,027.2,000.0,037.4,030.9,29.2,0000.0,0011.53,0005.63,0004.55
2023-05-30 18:37:00,SystemResetWarning,0828.4,4.99,000.00,029.2,026.3,000.0,037.3,030.8,29.6,0000.0,0011.41,0005.61,0004.54
2023-05-30 18:38:00,SystemResetWarning,0828.4,5.01,000.00,029.1,025.8,000.0,037.3,030.7,28.5,0000.0,0012.26,0005.60,0004.53
2023-05-30 18:39:00,SystemResetWarning,0828.4,5.02,000.00,029.1,025.9,000.0,037.3,030.5,28.3,0000.0,0013.43,0005.67,0004.54
2023-05-30 18:40:00,SystemResetWarning,0828.4,5.00,000.00,029.0,026.2,000.0,037.3,030.6,27.6,0000.0,0013.65,0005.68,0004.54
2023-05-30 18:41:00,SystemResetWarning,0828.4,5.00,000.00,029.0,026.5,000.0,037.3,030.6,28.0,0000.0,0013.69,0005.66,0004.55
2023-05-30 18:42:00,SystemResetWarning,0828.4,5.00,000.00,029.0,026.8,000.0,037.3,030.7,27.8,0000.0,0014.06,0005.69,0004.56
2023-05-30 18:43:00,SystemResetWarning,0828.4,4.98,000.00,029.0,027.0,000.0,037.3,030.7,27.6,0000.0,0013.31,0005.69,0004.57
2023-05-30 18:44:00,SystemResetWarning,0828.5,4.99,000.00,029.1,027.3,000.0,037.3,030.8,27.5,0000.0,0012.94,0005.68,0004.58
2023-05-30 18:45:00,SystemResetWarning,0828.5,5.00,000.00,029.1,027.4,000.0,037.3,030.8,27.2,0000.0,0013.21,0005.70,0004.58
2023-05-30 18:46:00,SystemResetWarning,0828.5,5.01,000.00,029.1,027.6,000.0,037.4,030.9,26.9,0000.0,0014.48,0005.71,0004.59
2023-05-30 18:47:00,SystemResetWarning,0828.5,5.01,000.00,029.1,027.7,000.0,037.4,030.9,27.3,0000.0,0014.87,0005.70,0004.59
2023-05-30 18:48:00,SystemResetWarning,0828.5,5.00,000.00,029.2,027.8,000.0,037.4,031.0,27.2,0000.0,0014.94,0005.74,0004.61
2023-05-30 18:49:00,SystemResetWarning,0828.6,4.99,000.00,029.2,027.8,000.0,037.4,031.0,27.0,0000.0,0014.01,0005.75,0004.63
2023-05-30 18:50:00,SystemResetWarning,0828.6,5.00,000.00,029.2,026.7,000.0,037.4,030.8,26.3,0000.0,0012.99,0005.73,0004.63
2023-05-30 18:51:00,SystemResetWarning,0828.5,5.00,000.00,029.1,025.8,000.0,037.3,030.7,26.0,0000.0,0012.97,0005.75,0004.63
2023-05-30 18:52:00,SystemResetWarning,0828.4,5.01,000.00,029.1,025.8,000.0,037.3,030.6,25.9,0000.0,0013.29,0005.76,0004.63
2023-05-30 18:54:00,SystemResetWarning,0828.4,5.00,000.00,029.0,026.4,000.0,037.3,030.7,25.7,0000.0,0013.58,0005.81,0004.63
2023-05-30 18:55:00,SystemResetWarning,0828.4,4.99,000.00,029.0,026.6,000.0,037.3,030.7,25.4,0000.0,0013.84,0005.86,0004.64
2023-05-30 18:56:00,SystemResetWarning,0828.5,5.00,000.00,029.0,026.9,000.0,037.3,030.7,26.1,0000.0,0013.60,0005.84,0004.64
2023-05-30 18:57:00,SystemResetWarning,0828.4,5.01,000.00,029.1,027.1,000.0,037.3,030.8,25.5,0000.0,0012.42,0005.83,0004.64
2023-05-30 18:58:00,SystemResetWarning,0828.4,5.01,000.00,029.1,027.3,000.0,037.4,030.8,26.3,0000.0,0012.16,0005.84,0004.65
2023-05-30 18:59:00,SystemResetWarning,0828.4,5.00,000.00,029.1,027.5,000.0,037.4,030.8,26.1,0000.0,0012.25,0005.82,0004.67
